When you browse on this site, cookies collect data to enhance your experience and personalize the content and advertising you see.
Visit our Privacy Policy to learn more. By continuing to use the site, you agree to this use of cookies and data.
  • In Hungary
  • List of Countries
  • For 7 days
  • Water Temperature
  • Satellite Maps
  • Weather Map
  • News
  • Weather Widgets
  • user-avatar
    Login

    Hourly Weather Stuttgart

    Today, 21 July, Sunday

    Time Temperature Precipitation Wind Pressure Humidity
    00:00 +21°C° 0.5 mm 3 mps 737 mmHg 80%
    01:00 +21°C° 0 mm 1 mps 737 mmHg 83%
    02:00 +21°C° 0.6 mm 1 mps 737 mmHg 86%
    03:00 +20°C° 0.6 mm 1 mps 737 mmHg 89%
    04:00 +20°C° 0.6 mm 1 mps 737 mmHg 91%
    05:00 +21°C° 0.5 mm 1 mps 738 mmHg 89%
    06:00 +21°C° 0.5 mm 1 mps 738 mmHg 88%
    07:00 +21°C° 0 mm 2 mps 739 mmHg 86%
    08:00 +22°C° 0.5 mm 3 mps 739 mmHg 79%
    09:00 +24°C° 0.5 mm 3 mps 740 mmHg 73%
    10:00 +25°C° 0.5 mm 4 mps 740 mmHg 67%
    11:00 +26°C° 0.1 mm 3 mps 740 mmHg 62%
    12:00 +27°C° 0.1 mm 3 mps 740 mmHg 57%
    13:00 +28°C° 0 mm 4 mps 741 mmHg 51%
    14:00 +28°C° 0.2 mm 3 mps 741 mmHg 53%
    15:00 +28°C° 0.2 mm 3 mps 741 mmHg 54%
    16:00 +28°C° 0.2 mm 3 mps 741 mmHg 56%
    17:00 +27°C° 0.1 mm 2 mps 741 mmHg 60%
    18:00 +26°C° 0.1 mm 2 mps 741 mmHg 65%
    19:00 +25°C° 0.1 mm 1 mps 741 mmHg 69%
    20:00 +24°C° 0 mm 1 mps 741 mmHg 71%
    21:00 +23°C° 0 mm 1 mps 741 mmHg 73%
    22:00 +21°C° 0 mm 1 mps 742 mmHg 74%
    23:00 +21°C° 0 mm 1 mps 742 mmHg 76%

    Tomorrow, 22 July, Monday

    Time Temperature Precipitation Wind Pressure Humidity
    00:00 +20°C° 0 mm 1 mps 742 mmHg 77%
    01:00 +20°C° 0 mm 1 mps 742 mmHg 79%
    02:00 +20°C° 0 mm 1 mps 742 mmHg 80%
    03:00 +17°C° 0 mm 0 mps 742 mmHg 81%
    04:00 +17°C° 0 mm 0 mps 742 mmHg 82%
    05:00 +18°C° 0 mm 0 mps 742 mmHg 80%
    06:00 +19°C° 0 mm 0 mps 742 mmHg 78%
    07:00 +19°C° 0 mm 0 mps 742 mmHg 77%
    08:00 +21°C° 0 mm 0 mps 742 mmHg 71%
    09:00 +23°C° 0 mm 0 mps 742 mmHg 64%
    10:00 +25°C° 0 mm 0 mps 743 mmHg 58%
    11:00 +28°C° 0 mm 1 mps 742 mmHg 55%
    12:00 +29°C° 0 mm 1 mps 742 mmHg 51%
    13:00 +30°C° 0 mm 1 mps 742 mmHg 48%
    14:00 +30°C° 0 mm 1 mps 742 mmHg 47%
    15:00 +29°C° 0 mm 1 mps 742 mmHg 46%
    16:00 +29°C° 0 mm 1 mps 742 mmHg 46%
    17:00 +28°C° 0 mm 1 mps 742 mmHg 50%
    18:00 +27°C° 0 mm 1 mps 742 mmHg 55%
    19:00 +26°C° 0 mm 1 mps 741 mmHg 60%
    20:00 +25°C° 0 mm 1 mps 741 mmHg 63%
    21:00 +23°C° 0 mm 1 mps 742 mmHg 67%
    22:00 +22°C° 0 mm 1 mps 742 mmHg 71%
    23:00 +21°C° 0 mm 1 mps 742 mmHg 74%

    Day after tomorrow, 23 July, Tuesday

    Time Temperature Precipitation Wind Pressure Humidity
    00:00 +21°C° 0 mm 1 mps 742 mmHg 78%
    01:00 +20°C° 0 mm 1 mps 741 mmHg 81%
    02:00 +20°C° 0 mm 1 mps 741 mmHg 82%
    03:00 +20°C° 0 mm 1 mps 741 mmHg 83%
    04:00 +19°C° 0 mm 1 mps 741 mmHg 84%
    05:00 +20°C° 0 mm 1 mps 741 mmHg 82%
    06:00 +21°C° 0 mm 1 mps 741 mmHg 79%
    07:00 +22°C° 0 mm 1 mps 740 mmHg 76%
    08:00 +24°C° 0 mm 1 mps 741 mmHg 70%
    09:00 +26°C° 0 mm 1 mps 741 mmHg 63%
    10:00 +28°C° 0 mm 2 mps 741 mmHg 56%
    11:00 +29°C° 0 mm 2 mps 740 mmHg 52%
    12:00 +30°C° 0 mm 2 mps 740 mmHg 49%
    13:00 +31°C° 0 mm 2 mps 740 mmHg 45%
    14:00 +31°C° 0 mm 2 mps 739 mmHg 45%
    15:00 +31°C° 0 mm 2 mps 739 mmHg 46%
    16:00 +31°C° 0 mm 2 mps 739 mmHg 46%
    17:00 +30°C° 0 mm 2 mps 738 mmHg 53%
    18:00 +29°C° 0 mm 2 mps 738 mmHg 59%
    19:00 +28°C° 0 mm 2 mps 738 mmHg 66%
    20:00 +26°C° 0 mm 2 mps 738 mmHg 69%
    21:00 +24°C° 0 mm 1 mps 738 mmHg 73%
    22:00 +23°C° 0 mm 1 mps 738 mmHg 77%
    23:00 +22°C° 0 mm 1 mps 738 mmHg 78%

    24 July, Wednesday

    Time Temperature Precipitation Wind Pressure Humidity
    00:00 +22°C° 0 mm 1 mps 738 mmHg 80%
    01:00 +21°C° 0 mm 1 mps 737 mmHg 81%
    02:00 +21°C° 0 mm 1 mps 737 mmHg 82%
    03:00 +20°C° 0 mm 1 mps 737 mmHg 83%
    04:00 +20°C° 0 mm 1 mps 737 mmHg 84%
    05:00 +21°C° 0 mm 1 mps 737 mmHg 82%
    06:00 +22°C° 0 mm 1 mps 737 mmHg 79%
    07:00 +23°C° 0 mm 1 mps 737 mmHg 76%
    08:00 +25°C° 0 mm 1 mps 737 mmHg 69%
    09:00 +27°C° 0 mm 1 mps 737 mmHg 62%
    10:00 +29°C° 0 mm 1 mps 737 mmHg 55%
    11:00 +31°C° 0 mm 1 mps 737 mmHg 50%
    12:00 +32°C° 0 mm 1 mps 737 mmHg 45%
    13:00 +34°C° 0 mm 1 mps 737 mmHg 41%
    14:00 +34°C° 0 mm 1 mps 737 mmHg 39%
    15:00 +34°C° 0 mm 1 mps 737 mmHg 38%
    16:00 +34°C° 0 mm 1 mps 737 mmHg 37%
    17:00 +33°C° 0 mm 1 mps 736 mmHg 46%
    18:00 +31°C° 0 mm 2 mps 736 mmHg 54%
    19:00 +30°C° 0 mm 2 mps 736 mmHg 63%
    20:00 +28°C° 0 mm 2 mps 736 mmHg 68%
    21:00 +26°C° 0 mm 1 mps 737 mmHg 74%
    22:00 +25°C° 0 mm 1 mps 737 mmHg 79%
    23:00 +24°C° 0 mm 1 mps 737 mmHg 81%

    25 July, Thursday

    Time Temperature Precipitation Wind Pressure Humidity
    00:00 +24°C° 0 mm 1 mps 737 mmHg 82%
    01:00 +23°C° 0 mm 1 mps 736 mmHg 83%
    02:00 +23°C° 0 mm 1 mps 736 mmHg 83%
    03:00 +22°C° 0 mm 1 mps 736 mmHg 83%
    04:00 +22°C° 0 mm 1 mps 736 mmHg 83%
    05:00 +23°C° 0 mm 1 mps 736 mmHg 79%
    06:00 +23°C° 0 mm 1 mps 736 mmHg 76%
    07:00 +24°C° 0 mm 2 mps 736 mmHg 73%
    08:00 +26°C° 0 mm 2 mps 736 mmHg 66%
    09:00 +28°C° 0 mm 2 mps 736 mmHg 59%
    10:00 +30°C° 0 mm 2 mps 736 mmHg 53%
    11:00 +31°C° 0 mm 3 mps 736 mmHg 50%
    12:00 +33°C° 0 mm 3 mps 736 mmHg 47%
    13:00 +34°C° 0 mm 3 mps 735 mmHg 44%
    14:00 +34°C° 0 mm 3 mps 735 mmHg 46%
    15:00 +34°C° 0 mm 3 mps 735 mmHg 48%
    16:00 +35°C° 0 mm 3 mps 734 mmHg 49%
    17:00 +33°C° 0 mm 3 mps 734 mmHg 56%
    18:00 +31°C° 0 mm 3 mps 734 mmHg 62%
    19:00 +30°C° 0 mm 3 mps 734 mmHg 69%
    20:00 +28°C° 0 mm 2 mps 734 mmHg 72%
    21:00 +27°C° 0 mm 2 mps 734 mmHg 75%
    22:00 +25°C° 0 mm 2 mps 734 mmHg 78%
    23:00 +25°C° 0 mm 2 mps 734 mmHg 79%

    26 July, Friday

    Time Temperature Precipitation Wind Pressure Humidity
    00:00 +24°C° 0 mm 2 mps 734 mmHg 80%
    01:00 +23°C° 0 mm 2 mps 734 mmHg 81%
    02:00 +23°C° 0 mm 2 mps 733 mmHg 81%
    03:00 +23°C° 0 mm 1 mps 733 mmHg 82%
    04:00 +22°C° 0 mm 1 mps 733 mmHg 83%
    05:00 +23°C° 0 mm 1 mps 733 mmHg 80%
    06:00 +24°C° 0 mm 1 mps 733 mmHg 77%
    07:00 +25°C° 0 mm 1 mps 733 mmHg 74%
    08:00 +27°C° 0 mm 1 mps 733 mmHg 67%
    09:00 +30°C° 0 mm 1 mps 733 mmHg 60%
    10:00 +30°C° 0 mm 0 mps 733 mmHg 53%
    11:00 +33°C° 0.1 mm 1 mps 733 mmHg 50%
    12:00 +34°C° 0.1 mm 2 mps 733 mmHg 48%
    13:00 +35°C° 0.1 mm 3 mps 733 mmHg 45%
    14:00 +35°C° 0.2 mm 3 mps 732 mmHg 46%
    15:00 +35°C° 0.2 mm 2 mps 732 mmHg 47%
    16:00 +34°C° 0.2 mm 2 mps 732 mmHg 47%
    17:00 +32°C° 0.3 mm 2 mps 732 mmHg 54%
    18:00 +30°C° 0.3 mm 1 mps 732 mmHg 61%
    19:00 +29°C° 0.3 mm 1 mps 732 mmHg 68%
    20:00 +27°C° 1.1 mm 2 mps 732 mmHg 72%
    21:00 +25°C° 1.1 mm 3 mps 733 mmHg 77%
    22:00 +22°C° 1.1 mm 4 mps 733 mmHg 82%
    23:00 +22°C° 0.1 mm 3 mps 733 mmHg 83%
    Show more